• In Russia
  • List of Countries
  • For 7 days
  • Water Temperature
  • Weather Map
  • Weather Widgets
  • user-avatar
    Login

    Hourly Weather Regina

    Today, 6 June, Saturday

    Time Temperature Precipitation Wind Pressure Humidity
    00:00 +14°C° 0 mm 7 mps 709 mmHg 70%
    01:00 +14°C° 0 mm 7 mps 709 mmHg 71%
    02:00 +12°C° 0 mm 7 mps 708 mmHg 73%
    03:00 +12°C° 0.1 mm 8 mps 708 mmHg 73%
    04:00 +13°C° 0.1 mm 9 mps 707 mmHg 73%
    05:00 +13°C° 0.1 mm 10 mps 707 mmHg 73%
    06:00 +14°C° 0.2 mm 10 mps 706 mmHg 71%
    07:00 +14°C° 0.2 mm 11 mps 706 mmHg 70%
    08:00 +15°C° 0.2 mm 12 mps 706 mmHg 68%
    09:00 +15°C° 0.2 mm 12 mps 705 mmHg 69%
    10:00 +17°C° 0.2 mm 12 mps 705 mmHg 70%
    11:00 +17°C° 0.2 mm 13 mps 704 mmHg 71%
    12:00 +17°C° 0.2 mm 12 mps 704 mmHg 71%
    13:00 +17°C° 0.2 mm 11 mps 703 mmHg 71%
    14:00 +17°C° 0.2 mm 10 mps 702 mmHg 71%
    15:00 +18°C° 0.1 mm 10 mps 702 mmHg 69%
    16:00 +19°C° 0.1 mm 10 mps 701 mmHg 68%
    17:00 +21°C° 0.1 mm 10 mps 700 mmHg 67%
    18:00 +19°C° 0 mm 11 mps 700 mmHg 67%
    19:00 +19°C° 0 mm 11 mps 699 mmHg 67%
    20:00 +18°C° 0 mm 11 mps 698 mmHg 67%
    21:00 +18°C° 0.1 mm 11 mps 698 mmHg 69%
    22:00 +17°C° 0.1 mm 11 mps 697 mmHg 72%
    23:00 +17°C° 0.1 mm 11 mps 696 mmHg 74%

    Tomorrow, 7 June, Sunday

    Time Temperature Precipitation Wind Pressure Humidity
    00:00 +17°C° 0.2 mm 11 mps 695 mmHg 77%
    01:00 +16°C° 0.2 mm 10 mps 694 mmHg 81%
    02:00 +16°C° 0.2 mm 10 mps 693 mmHg 85%
    03:00 +17°C° 0.7 mm 10 mps 692 mmHg 83%
    04:00 +17°C° 0.7 mm 10 mps 691 mmHg 82%
    05:00 +18°C° 0.7 mm 9 mps 691 mmHg 81%
    06:00 +18°C° 0.1 mm 10 mps 691 mmHg 76%
    07:00 +19°C° 0.1 mm 10 mps 691 mmHg 72%
    08:00 +19°C° 0.1 mm 11 mps 691 mmHg 67%
    09:00 +21°C° 0 mm 11 mps 692 mmHg 62%
    10:00 +22°C° 0 mm 11 mps 693 mmHg 56%
    11:00 +24°C° 0 mm 11 mps 694 mmHg 51%
    12:00 +24°C° 0 mm 10 mps 695 mmHg 48%
    13:00 +24°C° 0 mm 10 mps 695 mmHg 45%
    14:00 +24°C° 0 mm 10 mps 696 mmHg 42%
    15:00 +24°C° 0 mm 9 mps 697 mmHg 41%
    16:00 +24°C° 0 mm 7 mps 697 mmHg 40%
    17:00 +23°C° 0 mm 6 mps 697 mmHg 39%
    18:00 +22°C° 0 mm 5 mps 697 mmHg 43%
    19:00 +20°C° 0 mm 3 mps 697 mmHg 47%
    20:00 +20°C° 0 mm 1 mps 697 mmHg 51%
    21:00 +18°C° 0 mm 2 mps 697 mmHg 52%
    22:00 +17°C° 0 mm 3 mps 697 mmHg 53%
    23:00 +17°C° 0 mm 3 mps 697 mmHg 54%

    Day after tomorrow, 8 June, Monday

    Time Temperature Precipitation Wind Pressure Humidity
    00:00 +16°C° 0.1 mm 3 mps 697 mmHg 57%
    01:00 +16°C° 0.1 mm 3 mps 697 mmHg 59%
    02:00 +14°C° 0.1 mm 3 mps 697 mmHg 62%
    03:00 +14°C° 0.3 mm 3 mps 697 mmHg 66%
    04:00 +15°C° 0.3 mm 2 mps 697 mmHg 71%
    05:00 +14°C° 0.3 mm 2 mps 697 mmHg 75%
    06:00 +14°C° 0.1 mm 3 mps 697 mmHg 72%
    07:00 +14°C° 0.1 mm 4 mps 697 mmHg 69%
    08:00 +14°C° 0.1 mm 5 mps 698 mmHg 65%
    09:00 +15°C° 0.1 mm 6 mps 698 mmHg 60%
    10:00 +15°C° 0.1 mm 7 mps 698 mmHg 55%
    11:00 +16°C° 0.1 mm 9 mps 699 mmHg 49%
    12:00 +16°C° 0 mm 9 mps 699 mmHg 48%
    13:00 +17°C° 0 mm 9 mps 700 mmHg 46%
    14:00 +17°C° 0 mm 9 mps 700 mmHg 45%
    15:00 +17°C° 0 mm 9 mps 700 mmHg 46%
    16:00 +16°C° 0 mm 9 mps 701 mmHg 48%
    17:00 +16°C° 0 mm 9 mps 701 mmHg 49%
    18:00 +15°C° 0 mm 8 mps 701 mmHg 53%
    19:00 +12°C° 0 mm 8 mps 701 mmHg 57%
    20:00 +11°C° 0 mm 7 mps 702 mmHg 61%
    21:00 +10°C° 0 mm 7 mps 702 mmHg 63%
    22:00 +9°C° 0 mm 6 mps 702 mmHg 65%
    23:00 +8°C° 0 mm 6 mps 702 mmHg 67%

    9 June, Tuesday

    Time Temperature Precipitation Wind Pressure Humidity
    00:00 +8°C° 0 mm 6 mps 702 mmHg 67%
    01:00 +8°C° 0 mm 6 mps 702 mmHg 67%
    02:00 +8°C° 0 mm 7 mps 702 mmHg 66%
    03:00 +8°C° 0 mm 7 mps 702 mmHg 67%
    04:00 +8°C° 0 mm 7 mps 702 mmHg 68%
    05:00 +6°C° 0 mm 8 mps 702 mmHg 69%
    06:00 +7°C° 0 mm 8 mps 702 mmHg 66%
    07:00 +9°C° 0 mm 8 mps 702 mmHg 63%
    08:00 +10°C° 0 mm 9 mps 703 mmHg 60%
    09:00 +10°C° 0 mm 9 mps 703 mmHg 64%
    10:00 +10°C° 0 mm 8 mps 703 mmHg 68%
    11:00 +9°C° 0 mm 8 mps 703 mmHg 72%
    12:00 +10°C° 0 mm 8 mps 703 mmHg 72%
    13:00 +10°C° 0 mm 8 mps 703 mmHg 71%
    14:00 +11°C° 0 mm 7 mps 703 mmHg 71%
    15:00 +10°C° 0 mm 7 mps 703 mmHg 72%
    16:00 +10°C° 0 mm 7 mps 704 mmHg 74%
    17:00 +9°C° 0 mm 7 mps 704 mmHg 75%
    18:00 +9°C° 0.2 mm 7 mps 704 mmHg 79%
    19:00 +8°C° 0.2 mm 6 mps 704 mmHg 82%
    20:00 +8°C° 0.2 mm 6 mps 704 mmHg 86%
    21:00 +8°C° 0.2 mm 6 mps 704 mmHg 87%
    22:00 +7°C° 0.2 mm 6 mps 704 mmHg 87%
    23:00 +7°C° 0.2 mm 6 mps 705 mmHg 88%

    10 June, Wednesday

    Time Temperature Precipitation Wind Pressure Humidity
    00:00 +7°C° 0.1 mm 6 mps 705 mmHg 88%
    01:00 +5°C° 0.1 mm 6 mps 705 mmHg 87%
    02:00 +5°C° 0.1 mm 6 mps 705 mmHg 86%
    03:00 +5°C° 0 mm 7 mps 705 mmHg 86%
    04:00 +4°C° 0 mm 7 mps 706 mmHg 86%
    05:00 +4°C° 0 mm 7 mps 706 mmHg 86%
    06:00 +4°C° 0.1 mm 7 mps 706 mmHg 85%
    07:00 +4°C° 0.1 mm 7 mps 707 mmHg 84%
    08:00 +4°C° 0.1 mm 7 mps 708 mmHg 83%
    09:00 +5°C° 0.1 mm 7 mps 708 mmHg 77%
    10:00 +6°C° 0.1 mm 8 mps 709 mmHg 70%
    11:00 +7°C° 0.1 mm 8 mps 710 mmHg 64%
    12:00 +7°C° 0.1 mm 8 mps 711 mmHg 64%
    13:00 +7°C° 0.1 mm 8 mps 711 mmHg 65%
    14:00 +8°C° 0.1 mm 7 mps 712 mmHg 65%
    15:00 +6°C° 0 mm 7 mps 712 mmHg 66%
    16:00 +7°C° 0 mm 6 mps 713 mmHg 67%
    17:00 +7°C° 0 mm 6 mps 713 mmHg 68%
    18:00 +6°C° 0.1 mm 5 mps 714 mmHg 69%
    19:00 +6°C° 0.1 mm 5 mps 714 mmHg 70%
    20:00 +6°C° 0.1 mm 5 mps 715 mmHg 71%
    21:00 +5°C° 0 mm 4 mps 715 mmHg 77%
    22:00 +4°C° 0 mm 4 mps 716 mmHg 83%
    23:00 +2°C° 0 mm 3 mps 716 mmHg 89%

    11 June, Thursday

    Time Temperature Precipitation Wind Pressure Humidity
    00:00 +2°C° 0 mm 3 mps 716 mmHg 91%
    01:00 +2°C° 0 mm 3 mps 717 mmHg 93%
    02:00 +1°C° 0 mm 3 mps 717 mmHg 95%
    03:00 +1°C° 0 mm 3 mps 717 mmHg 93%
    04:00 +2°C° 0 mm 3 mps 718 mmHg 91%
    05:00 +2°C° 0 mm 3 mps 718 mmHg 90%
    06:00 +4°C° 0 mm 3 mps 719 mmHg 81%
    07:00 +7°C° 0 mm 3 mps 719 mmHg 71%
    08:00 +9°C° 0 mm 3 mps 719 mmHg 62%
    09:00 +10°C° 0 mm 3 mps 719 mmHg 55%
    10:00 +12°C° 0 mm 3 mps 719 mmHg 49%
    11:00 +13°C° 0 mm 3 mps 720 mmHg 43%
    12:00 +14°C° 0 mm 3 mps 719 mmHg 40%
    13:00 +16°C° 0 mm 3 mps 719 mmHg 38%
    14:00 +17°C° 0 mm 3 mps 719 mmHg 35%
    15:00 +17°C° 0 mm 2 mps 719 mmHg 35%
    16:00 +17°C° 0 mm 2 mps 719 mmHg 35%
    17:00 +17°C° 0 mm 2 mps 719 mmHg 35%
    18:00 +16°C° 0 mm 3 mps 719 mmHg 41%
    19:00 +13°C° 0 mm 3 mps 719 mmHg 48%
    20:00 +11°C° 0 mm 3 mps 719 mmHg 54%
    21:00 +10°C° 0 mm 3 mps 719 mmHg 56%
    22:00 +9°C° 0 mm 3 mps 719 mmHg 58%
    23:00 +8°C° 0 mm 3 mps 719 mmHg 60%
    Show more